Laconia, NH

3:47 AM EDT on October 19, 2017 (GMT -0400)
Laconia Municipal

Weather History for KLCI - October, 2013

Change the Weather History Date:

Thursday, October 24, 2013

  Actual Average Record
Temperature  
Mean Temperature 42 °F -  
Max Temperature 48 °F 57 °F 71 °F (1995)
Min Temperature 37 °F 35 °F 26 °F (2002)
Degree Days  
Heating Degree Days 22    
Moisture  
Dew Point 28 °F    
Average Humidity 57    
Maximum Humidity 81    
Minimum Humidity 43    
Precipitation  
Precipitation 0.00 in - - ()
Sea Level Pressure  
Sea Level Pressure 29.72 in    
Wind  
Wind Speed 10 mph (WSW)    
Max Wind Speed 23 mph    
Max Gust Speed 31 mph    
Visibility 10 miles    
Events      
Averages and records for this station are not official NWS values.
T = Trace of Precipitation, MM = Missing Value Source: NWS Daily Summary

Daily Weather History Graph

Daily Weather History Graph

Search for Another Location

Airport or City:

Trip Planner

Search our weather history database for the weather conditions in past years. The results will help you decide how hot, cold, wet, or windy it might be!

Date:

Astronomy

Oct. 24, 2013 Rise Set
Actual Time 7:11 AM EDT 5:47 PM EDT
Civil Twilight 6:41 AM EDT 6:17 PM EDT
Nautical Twilight 6:08 AM EDT 6:50 PM EDT
Astronomical Twilight 5:35 AM EDT 7:23 PM EDT
Moon 10:05 PM EDT (10/24) 12:14 PM EDT (10/24)
Length of Visible Light 11h 35m
Length of Day
10h 36m
Waning Gibbous, 71% of the Moon is Illuminated
Oct 24
Waning Gibbous
Oct 26
Last Quarter
Nov 3
New
Nov 10
First Quarter
Nov 17
Full

Hourly Weather History & Observations

Time (EDT) Temp. Windchill Dew Point Humidity Pressure Visibility Wind Dir Wind Speed Gust Speed Precip Events Conditions
12:15 AM 44.6 °F 43.1 °F 28.4 °F 53% 29.61 in 10.0 mi West 3.5 mph - N/A   Clear
12:35 AM 44.6 °F 40.7 °F 28.4 °F 53% 29.62 in 10.0 mi West 6.9 mph - N/A   Clear
12:55 AM 44.6 °F 41.4 °F 28.4 °F 53% 29.63 in 10.0 mi West 5.8 mph - N/A   Mostly Cloudy
1:15 AM 44.6 °F 43.1 °F 28.4 °F 53% 29.63 in 10.0 mi West 3.5 mph - N/A   Mostly Cloudy
1:35 AM 42.8 °F 39.3 °F 28.4 °F 57% 29.63 in 10.0 mi West 5.8 mph - N/A   Partly Cloudy
1:55 AM 42.8 °F 38.6 °F 28.4 °F 57% 29.64 in 10.0 mi West 6.9 mph - N/A   Mostly Cloudy
2:15 AM 42.8 °F 39.3 °F 28.4 °F 57% 29.64 in 10.0 mi WNW 5.8 mph - N/A   Overcast
2:35 AM 42.8 °F 40.1 °F 28.4 °F 57% 29.65 in 10.0 mi West 4.6 mph - N/A   Overcast
2:55 AM 42.8 °F 40.1 °F 28.4 °F 57% 29.64 in 10.0 mi West 4.6 mph - N/A   Overcast
3:15 AM 42.8 °F 40.1 °F 28.4 °F 57% 29.64 in 10.0 mi West 4.6 mph - N/A   Mostly Cloudy
3:35 AM 41.0 °F 37.1 °F 28.4 °F 61% 29.65 in 10.0 mi WSW 5.8 mph - N/A   Mostly Cloudy
3:55 AM 41.0 °F 38.0 °F 28.4 °F 61% 29.65 in 10.0 mi WSW 4.6 mph - N/A   Mostly Cloudy
4:15 AM 39.2 °F 34.2 °F 30.2 °F 70% 29.66 in 10.0 mi WSW 6.9 mph - N/A   Clear
4:35 AM 39.2 °F 35.9 °F 30.2 °F 70% 29.66 in 10.0 mi WSW 4.6 mph - N/A   Clear
4:55 AM 39.2 °F 35.9 °F 30.2 °F 70% 29.66 in 10.0 mi WSW 4.6 mph - N/A   Clear
5:15 AM 39.2 °F 33.6 °F 30.2 °F 70% 29.67 in 10.0 mi WSW 8.1 mph - N/A   Clear
5:35 AM 37.4 °F 33.8 °F 30.2 °F 75% 29.68 in 10.0 mi WSW 4.6 mph - N/A   Clear
5:55 AM 37.4 °F 32.1 °F 30.2 °F 75% 29.68 in 10.0 mi West 6.9 mph - N/A   Clear
6:15 AM 39.2 °F 33.6 °F 30.2 °F 70% 29.69 in 10.0 mi WSW 8.1 mph - N/A   Clear
6:35 AM 37.4 °F 32.1 °F 30.2 °F 75% 29.69 in 10.0 mi West 6.9 mph - N/A   Clear
6:55 AM 37.4 °F 30.8 °F 30.2 °F 75% 29.70 in 10.0 mi West 9.2 mph - N/A   Clear
7:15 AM 37.4 °F 31.4 °F 28.4 °F 70% 29.70 in 10.0 mi West 8.1 mph - N/A   Clear
7:35 AM 37.4 °F 30.8 °F 28.4 °F 70% 29.71 in 10.0 mi West 9.2 mph - N/A   Clear
7:55 AM 37.4 °F 29.8 °F 28.4 °F 70% 29.71 in 10.0 mi WSW 11.5 mph - N/A   Clear
8:15 AM 39.2 °F 31.2 °F 28.4 °F 65% 29.72 in 10.0 mi WSW 13.8 mph - N/A   Clear
8:35 AM 39.2 °F 32.0 °F 26.6 °F 61% 29.72 in 10.0 mi WSW 11.5 mph - N/A   Clear
8:55 AM 39.2 °F 30.8 °F 26.6 °F 61% 29.72 in 10.0 mi SW 15.0 mph 19.6 mph N/A   Clear
9:15 AM 39.2 °F 31.2 °F 26.6 °F 61% 29.73 in 10.0 mi SW 13.8 mph 21.9 mph N/A   Clear
9:35 AM 41.0 °F 32.2 °F 26.6 °F 57% 29.72 in 10.0 mi SW 18.4 mph 26.5 mph N/A   Clear
9:55 AM 42.8 °F 35.4 °F 26.6 °F 53% 29.72 in 10.0 mi SW 15.0 mph 20.7 mph N/A   Clear
10:15 AM 42.8 °F 35.1 °F 26.6 °F 53% 29.72 in 10.0 mi WSW 16.1 mph 19.6 mph N/A   Clear
10:35 AM 44.6 °F 37.2 °F 26.6 °F 49% 29.72 in 10.0 mi WSW 17.3 mph 25.3 mph N/A   Clear
10:55 AM 44.6 °F 37.2 °F 26.6 °F 49% 29.72 in 10.0 mi West 17.3 mph 26.5 mph N/A   Clear
11:15 AM 44.6 °F 36.4 °F 26.6 °F 49% 29.72 in 10.0 mi West 20.7 mph 28.8 mph N/A   Scattered Clouds
11:35 AM 46.4 °F 38.5 °F 26.6 °F 46% 29.72 in 10.0 mi WSW 21.9 mph 29.9 mph N/A   Scattered Clouds
11:55 AM 46.4 °F 39.0 °F 26.6 °F 46% 29.71 in 10.0 mi WSW 19.6 mph 28.8 mph N/A   Partly Cloudy
12:15 PM 46.4 °F 40.4 °F 26.6 °F 46% 29.71 in 10.0 mi WSW 13.8 mph 24.2 mph N/A   Scattered Clouds
12:35 PM 46.4 °F 39.2 °F 26.6 °F 46% 29.71 in 10.0 mi WSW 18.4 mph 29.9 mph N/A   Partly Cloudy
12:55 PM 46.4 °F 40.7 °F 26.6 °F 46% 29.70 in 10.0 mi West 12.7 mph 25.3 mph N/A   Scattered Clouds
1:15 PM 46.4 °F 39.2 °F 26.6 °F 46% 29.70 in 10.0 mi WSW 18.4 mph 26.5 mph N/A   Mostly Cloudy
1:35 PM 48.2 °F - 26.6 °F 43% 29.70 in 10.0 mi WSW 16.1 mph 24.2 mph N/A   Mostly Cloudy
1:55 PM 46.4 °F 38.5 °F 24.8 °F 43% 29.70 in 10.0 mi SW 21.9 mph 28.8 mph N/A   Overcast
2:15 PM 46.4 °F 39.8 °F 26.6 °F 46% 29.70 in 10.0 mi WSW 16.1 mph 26.5 mph N/A   Overcast
2:35 PM 46.4 °F 38.7 °F 26.6 °F 46% 29.70 in 10.0 mi WSW 20.7 mph 27.6 mph N/A   Overcast
2:55 PM 46.4 °F 39.2 °F 26.6 °F 46% 29.70 in 10.0 mi WSW 18.4 mph 24.2 mph N/A   Overcast
3:15 PM 46.4 °F 39.2 °F 26.6 °F 46% 29.70 in 10.0 mi SW 18.4 mph 28.8 mph N/A   Overcast
3:35 PM 46.4 °F 38.5 °F 26.6 °F 46% 29.70 in 10.0 mi SW 21.9 mph 29.9 mph N/A   Overcast
3:55 PM 46.4 °F 38.3 °F 26.6 °F 46% 29.71 in 10.0 mi SW 23.0 mph 31.1 mph N/A   Overcast
4:15 PM 46.4 °F 38.5 °F 26.6 °F 46% 29.71 in 10.0 mi WSW 21.9 mph 28.8 mph N/A   Overcast
4:35 PM 46.4 °F 38.5 °F 26.6 °F 46% 29.70 in 10.0 mi WSW 21.9 mph 28.8 mph N/A   Scattered Clouds
4:55 PM 46.4 °F 39.5 °F 26.6 °F 46% 29.71 in 10.0 mi WSW 17.3 mph 26.5 mph N/A   Partly Cloudy
5:15 PM 46.4 °F 39.8 °F 26.6 °F 46% 29.71 in 10.0 mi WSW 16.1 mph 29.9 mph N/A   Partly Cloudy
5:35 PM 46.4 °F 40.1 °F 26.6 °F 46% 29.72 in 10.0 mi WSW 15.0 mph 21.9 mph N/A   Mostly Cloudy
5:55 PM 46.4 °F 40.4 °F 26.6 °F 46% 29.73 in 10.0 mi WSW 13.8 mph 21.9 mph N/A   Overcast
6:15 PM 46.4 °F 39.5 °F 26.6 °F 46% 29.74 in 10.0 mi WSW 17.3 mph 21.9 mph N/A   Overcast
6:35 PM 46.4 °F 40.7 °F 26.6 °F 46% 29.75 in 10.0 mi WSW 12.7 mph 21.9 mph N/A   Overcast
6:55 PM 44.6 °F 38.1 °F 26.6 °F 49% 29.76 in 10.0 mi SW 13.8 mph - N/A   Overcast
7:15 PM 44.6 °F 37.2 °F 26.6 °F 49% 29.76 in 10.0 mi WSW 17.3 mph 23.0 mph N/A   Mostly Cloudy
7:35 PM 44.6 °F 37.4 °F 26.6 °F 49% 29.77 in 10.0 mi WSW 16.1 mph - N/A   Overcast
7:55 PM 44.6 °F 38.1 °F 26.6 °F 49% 29.77 in 10.0 mi SW 13.8 mph 21.9 mph N/A   Overcast
8:15 PM 44.6 °F 38.4 °F 28.4 °F 53% 29.77 in 10.0 mi WSW 12.7 mph - N/A   Overcast
8:35 PM 44.6 °F 38.8 °F 28.4 °F 53% 29.78 in 10.0 mi WSW 11.5 mph 16.1 mph N/A   Overcast
8:55 PM 44.6 °F 38.4 °F 28.4 °F 53% 29.78 in 10.0 mi WSW 12.7 mph - N/A   Overcast
9:15 PM 44.6 °F 38.4 °F 28.4 °F 53% 29.79 in 10.0 mi WSW 12.7 mph 17.3 mph N/A   Overcast
9:35 PM 44.6 °F 39.7 °F 28.4 °F 53% 29.80 in 10.0 mi WSW 9.2 mph - N/A   Overcast
9:55 PM 42.8 °F 36.2 °F 30.2 °F 61% 29.82 in 10.0 mi NW 12.7 mph 19.6 mph N/A   Overcast
10:15 PM 39.2 °F 33.0 °F 33.8 °F 81% 29.83 in 9.0 mi WNW 9.2 mph - N/A   Overcast
10:35 PM 39.2 °F 33.6 °F 33.8 °F 81% 29.83 in 10.0 mi West 8.1 mph - N/A   Overcast
10:55 PM 39.2 °F 34.2 °F 33.8 °F 81% 29.83 in 10.0 mi West 6.9 mph - N/A   Overcast
11:15 PM 39.2 °F 33.6 °F 33.8 °F 81% 29.84 in 10.0 mi WSW 8.1 mph - N/A   Mostly Cloudy
11:35 PM 39.2 °F 35.0 °F 32.0 °F 75% 29.84 in 10.0 mi West 5.8 mph - N/A   Partly Cloudy
11:55 PM 39.2 °F 34.2 °F 32.0 °F 75% 29.84 in 10.0 mi WSW 6.9 mph - N/A   Clear